TimeEDT,TemperatureF,Dew PointF,Humidity,Sea Level PressureIn,VisibilityMPH,Wind Direction,Wind SpeedMPH,Gust SpeedMPH,PrecipitationIn,Events,Conditions,WindDirDegrees,DateUTC
12:54 AM,55.9,46.9,72,29.64,10.0,SW,13.8,-,N/A,,Overcast,220,2011-10-17 04:54:00
1:54 AM,54.0,50.0,86,29.63,10.0,SW,10.4,-,0.03,,Overcast,220,2011-10-17 05:54:00
2:54 AM,53.6,48.2,82,29.61,10.0,WSW,10.4,-,N/A,,Overcast,250,2011-10-17 06:54:00
3:54 AM,54.0,48.0,80,29.60,10.0,WSW,9.2,-,N/A,,Overcast,240,2011-10-17 07:54:00
4:54 AM,54.0,46.9,77,29.61,10.0,WSW,10.4,-,N/A,,Mostly Cloudy,250,2011-10-17 08:54:00
5:54 AM,52.0,46.0,80,29.63,10.0,West,12.7,-,N/A,,Clear,280,2011-10-17 09:54:00
6:54 AM,48.0,37.9,68,29.64,10.0,West,12.7,-,N/A,,Clear,280,2011-10-17 10:54:00
7:54 AM,46.9,37.9,71,29.68,10.0,West,10.4,-,N/A,,Clear,260,2011-10-17 11:54:00
8:54 AM,50.0,39.9,68,29.70,10.0,West,18.4,24.2,N/A,,Clear,270,2011-10-17 12:54:00
9:54 AM,53.6,39.2,58,29.70,10.0,West,13.8,21.9,N/A,,Clear,260,2011-10-17 13:54:00
10:54 AM,55.4,33.8,44,29.69,10.0,West,17.3,29.9,N/A,,Clear,260,2011-10-17 14:54:00
11:54 AM,57.0,34.0,42,29.70,10.0,West,15.0,28.8,N/A,,Scattered Clouds,270,2011-10-17 15:54:00
12:54 PM,57.9,30.9,36,29.68,10.0,West,13.8,26.5,N/A,,Clear,270,2011-10-17 16:54:00
1:54 PM,59.0,32.0,36,29.67,10.0,WSW,18.4,24.2,N/A,,Partly Cloudy,250,2011-10-17 17:54:00
2:54 PM,59.0,33.1,38,29.66,10.0,WSW,17.3,23.0,N/A,,Scattered Clouds,250,2011-10-17 18:54:00
3:54 PM,59.0,34.0,39,29.67,10.0,West,10.4,21.9,N/A,,Partly Cloudy,260,2011-10-17 19:54:00
4:54 PM,59.0,34.0,39,29.67,10.0,WSW,8.1,-,N/A,,Partly Cloudy,240,2011-10-17 20:54:00
5:54 PM,54.0,36.0,51,29.68,10.0,SW,5.8,-,N/A,,Clear,230,2011-10-17 21:54:00
6:54 PM,54.0,36.0,51,29.70,10.0,SSW,5.8,-,N/A,,Clear,200,2011-10-17 22:54:00
7:54 PM,51.1,37.9,61,29.72,10.0,SW,9.2,-,N/A,,Clear,220,2011-10-17 23:54:00
8:54 PM,51.1,36.0,56,29.73,10.0,SW,11.5,-,N/A,,Clear,220,2011-10-18 00:54:00
9:54 PM,52.0,36.0,54,29.73,10.0,SW,12.7,-,N/A,,Clear,230,2011-10-18 01:54:00
10:54 PM,53.6,35.6,51,29.72,10.0,SW,15.0,-,N/A,,Clear,230,2011-10-18 02:54:00
11:54 PM,53.1,35.1,50,29.73,10.0,WSW,15.0,-,N/A,,Clear,250,2011-10-18 03:54:00